Weather reports worldwide

Advertisment
Geneve-Cointrin, Switzerland (6700): temperature & dewpoint: 21.04.2017 05:00:00 - 27.04.2017 05:00:00 (CEST)Geneve-Cointrin, Switzerland (6700): temperature 5cm: 21.04.2017 05:00:00 - 27.04.2017 05:00:00 (CEST)Geneve-Cointrin, Switzerland (6700): wind speed & gusts: 21.04.2017 05:00:00 - 27.04.2017 05:00:00 (CEST)Geneve-Cointrin, Switzerland (6700): wind direction: 21.04.2017 05:00:00 - 27.04.2017 05:00:00 (CEST)Geneve-Cointrin, Switzerland (6700): reduced air pressure: 21.04.2017 05:00:00 - 27.04.2017 05:00:00 (CEST)Geneve-Cointrin, Switzerland (6700): visibility: 21.04.2017 05:00:00 - 27.04.2017 05:00:00 (CEST)Geneve-Cointrin, Switzerland (6700): sunshine duration: 21.04.2017 05:00:00 - 27.04.2017 05:00:00 (CEST)Geneve-Cointrin, Switzerland (6700): precipitation: 21.04.2017 05:00:00 - 27.04.2017 05:00:00 (CEST)
Date & Time tt [°C] td [°C] tt 5cm [°C] ff [km/h] ff [kn] fx [km/h] fx [kn] dd ppp [hPa] vv [km] sd [min] rr [mm]
27.04.2017 05:00:00 4,6 2,7 3,9 5 3 - - NW 1014,4 - - -
27.04.2017 04:00:00 4,4 4,2 3,8 3 2 9 5 SW 1014,7 - 0 0,0
27.04.2017 03:00:00 4,6 3,0 3,8 8 5 17 9 SW 1014,7 - 0 0,0
27.04.2017 02:00:00 4,6 3,6 4,1 13 7 24 13 SSW 1014,9 - 0 0,1
27.04.2017 01:00:00 5,5 3,7 4,7 11 6 22 12 SW 1014,7 - 0 0,1
27.04.2017 00:00:00 5,2 4,1 4,6 11 6 19 11 S 1014,4 - 0 1,1
26.04.2017 23:00:00 5,8 4,7 5,3 10 6 18 10 S 1013,9 8 0 0,9
26.04.2017 22:00:00 6,2 5,4 5,6 8 4 18 10 NE 1013,2 - 0 1,1
26.04.2017 21:00:00 6,8 4,5 5,8 7 4 22 12 NNE 1012,2 - 0 0,0
26.04.2017 20:00:00 7,1 4,3 6,9 16 8 27 15 NE 1012,0 25 0 0,0
26.04.2017 19:00:00 8,0 4,5 8,4 11 6 28 15 NE 1011,2 - 1 0,0
26.04.2017 18:00:00 9,5 4,4 10,3 21 11 35 19 SW 1010,5 - 0 0,0
26.04.2017 17:00:00 10,3 4,1 12,6 24 13 35 19 SW 1009,8 30 0 0,0
26.04.2017 16:00:00 10,6 5,1 12,4 20 11 32 17 S 1009,7 - 0 0,0
26.04.2017 15:00:00 11,4 4,9 15,7 23 13 39 21 SSW 1009,3 - 23 0,0
26.04.2017 14:00:00 10,6 5,1 15,1 19 10 37 20 S 1009,1 40 13 0,0
26.04.2017 13:00:00 10,7 5,1 13,5 21 11 33 18 SW 1008,9 - 2 0,0
26.04.2017 12:00:00 8,6 5,5 - 16 9 34 18 SW 1009,3 - 0 0,0
26.04.2017 11:00:00 8,6 6,1 9,6 19 10 36 19 SW 1008,6 20 0 0,0
26.04.2017 10:00:00 7,7 5,6 7,3 24 13 35 19 SSW 1008,1 - 0 0,0
26.04.2017 09:00:00 8,2 6,6 7,5 22 12 32 17 SSW 1007,7 - 0 0,0
26.04.2017 08:00:00 8,1 7,1 7,4 13 7 21 11 SW 1007,4 10 0 0,0
26.04.2017 07:00:00 8,3 7,3 7,6 8 4 13 7 WSW 1006,7 - 0 0,4
26.04.2017 06:00:00 8,0 7,3 7,5 8 5 21 12 WSW 1006,7 - 0 1,2
26.04.2017 05:00:00 7,9 7,2 7,4 11 6 25 14 WSW 1006,9 - 0 1,1
26.04.2017 04:00:00 7,9 6,8 7,2 14 7 27 15 WSW 1007,0 - 0 0,8
26.04.2017 03:00:00 7,9 6,5 7,0 15 8 40 22 SW 1007,4 - 0 0,6
26.04.2017 02:00:00 8,6 7,7 7,9 21 11 40 22 SSW 1008,1 - 0 1,9
26.04.2017 01:00:00 9,2 8,4 8,6 16 9 27 14 SW 1007,9 - 0 1,7
26.04.2017 00:00:00 9,4 8,6 8,7 17 9 28 15 SSW 1007,5 - 0 0,9
25.04.2017 23:00:00 9,9 9,0 9,1 15 8 20 11 SSW 1006,7 4,0 0 1,1
25.04.2017 22:00:00 9,5 9,4 9,1 2 1 9 5 N 1006,6 - 0 1,3
25.04.2017 21:00:00 9,6 9,1 9,0 3 2 10 5 NE 1006,3 - 0 0,3
25.04.2017 20:00:00 9,7 9,2 9,3 5 3 10 6 NNW 1006,6 5 0 1,3
25.04.2017 19:00:00 9,8 9,5 9,3 5 3 10 6 NNE 1007,3 - 0 2,4
25.04.2017 18:00:00 9,8 8,9 9,5 3 2 16 8 SW 1007,9 - 0 1,5
25.04.2017 17:00:00 9,9 8,5 9,5 7 4 14 8 SSW 1008,6 8 0 1,5
25.04.2017 16:00:00 10,1 9,0 9,8 8 5 20 11 SSW 1009,3 - 0 1,2
25.04.2017 15:00:00 10,0 9,0 9,8 8 4 22 12 W 1010,4 - 0 1,9
25.04.2017 14:00:00 10,4 8,0 9,5 13 7 29 16 WSW 1011,0 8 0 0,9
25.04.2017 13:00:00 11,2 8,2 10,1 20 11 43 23 SW 1011,2 - 0 0,8
25.04.2017 12:00:00 13,4 7,2 12,4 28 15 41 22 SW 1010,3 - 0 0,1
25.04.2017 11:00:00 14,6 5,3 14,9 27 15 37 20 SW 1009,4 20 0 0,0
25.04.2017 10:00:00 14,2 6,5 15,0 21 11 34 19 SW 1009,4 - 1 0,0
25.04.2017 09:00:00 12,1 7,4 10,5 15 8 40 22 WSW 1010,0 - 0 0,3
25.04.2017 08:00:00 13,1 6,4 12,8 16 9 31 17 WSW 1009,8 23 0 0,0
25.04.2017 07:00:00 12,5 6,5 11,6 19 11 31 17 SW 1009,9 - 0 0,0
25.04.2017 06:00:00 12,7 6,1 11,4 23 13 31 17 SSW 1010,1 - 0 0,0
25.04.2017 05:00:00 13,6 5,8 11,9 22 12 31 17 SSW 1010,3 - 0 0,0
25.04.2017 04:00:00 14,0 5,9 12,5 19 10 28 15 SW 1010,5 - 0 0,0
25.04.2017 03:00:00 13,9 6,2 12,4 23 13 38 21 SSW 1010,7 - 0 0,0
25.04.2017 02:00:00 14,5 6,1 13,2 24 13 44 24 SW 1010,9 - 0 0,0
25.04.2017 01:00:00 15,0 6,1 12,8 23 13 31 17 SSW 1011,2 - 0 0,0
25.04.2017 00:00:00 16,2 6,3 14,5 20 11 29 16 SW 1010,9 - 0 0,0
24.04.2017 23:00:00 16,3 6,2 14,6 14 8 24 13 SW 1011,0 50 0 0,0
24.04.2017 22:00:00 18,0 5,0 14,8 14 8 32 17 SW 1010,8 - 0 0,0
24.04.2017 21:00:00 18,4 2,8 15,7 20 11 32 17 SSW 1010,5 - 0 0,0
24.04.2017 20:00:00 20,4 2,4 19,5 16 9 35 19 SW 1010,1 50 59 0,0
24.04.2017 19:00:00 21,7 0,3 22,4 26 14 44 24 SSW 1010,2 - 60 0,0
24.04.2017 18:00:00 22,7 0,3 25,3 27 15 49 26 SSW 1010,4 - 60 0,0
24.04.2017 17:00:00 22,4 2,3 26,5 26 14 48 26 SSW 1011,1 60 60 0,0
24.04.2017 16:00:00 22,2 1,8 26,7 26 14 42 23 SW 1012,0 - 60 0,0
24.04.2017 15:00:00 21,3 3,3 27,0 19 11 39 21 SSW 1013,0 - 60 0,0
24.04.2017 14:00:00 20,0 4,0 25,8 10 6 25 14 SSW 1014,3 60 60 0,0
24.04.2017 13:00:00 18,2 3,4 23,6 13 7 24 13 SW 1015,8 - 60 0,0
24.04.2017 12:00:00 15,3 1,7 21,7 8 5 18 10 S 1017,2 - 60 0,0
24.04.2017 11:00:00 11,5 0,6 19,2 5 3 13 7 ENE 1018,6 60 60 0,0
24.04.2017 10:00:00 9,9 0,5 16,8 6 4 16 8 ENE 1019,5 - 60 0,0
24.04.2017 09:00:00 8,5 0,0 13,4 11 6 18 10 ENE 1020,1 - 60 0,0
24.04.2017 08:00:00 6,3 1,4 8,9 3 2 8 4 NNE 1020,5 60 41 0,0
24.04.2017 07:00:00 2,7 0,0 -0,3 1 1 6 3 W 1021,0 - 0 0,0
24.04.2017 06:00:00 2,9 0,1 -0,6 2 1 5 3 NW 1020,9 - 0 0,0
24.04.2017 05:00:00 3,4 0,1 0,1 3 2 5 3 WNW 1020,9 - 0 0,0
24.04.2017 04:00:00 3,8 0,6 0,3 2 1 5 3 WNW 1021,0 - 0 0,0
24.04.2017 03:00:00 4,9 0,3 1,1 3 1 6 3 W 1021,0 - 0 0,0
24.04.2017 02:00:00 5,8 -0,3 2,1 3 1 5 3 W 1021,0 - 0 0,0
24.04.2017 01:00:00 8,0 -0,3 3,2 2 1 22 12 W 1020,8 - 0 0,0
24.04.2017 00:00:00 10,9 -0,5 7,9 12 6 26 14 NNE 1020,1 - 0 0,0
23.04.2017 23:00:00 11,9 0,0 9,4 14 7 31 17 NNE 1019,8 50 0 0,0
23.04.2017 22:00:00 12,1 0,9 8,4 10 5 18 10 NNE 1019,4 - 0 0,0
23.04.2017 21:00:00 12,5 1,8 9,0 9 5 24 13 N 1018,8 - 0 0,0
23.04.2017 20:00:00 15,4 1,8 14,9 15 8 26 14 NNE 1017,9 50 59 0,0
23.04.2017 19:00:00 16,9 1,5 18,9 14 8 28 15 NNE 1017,7 - 60 0,0
23.04.2017 18:00:00 17,3 1,2 20,7 19 11 29 16 NNE 1017,7 - 60 0,0
23.04.2017 17:00:00 17,4 0,5 22,1 20 11 32 17 NE 1017,9 50 60 0,0
23.04.2017 16:00:00 17,7 -0,9 23,2 20 11 31 17 NE 1018,4 - 60 0,0
23.04.2017 15:00:00 16,6 1,1 21,8 20 11 31 17 NNE 1019,2 - 60 0,0
23.04.2017 14:00:00 16,1 3,6 21,5 21 12 35 19 NE 1019,9 35 60 0,0
23.04.2017 13:00:00 15,4 4,1 20,6 23 12 31 17 NE 1020,6 - 60 0,0
23.04.2017 12:00:00 12,9 3,7 18,8 21 11 31 17 NE 1021,6 - 60 0,0
23.04.2017 11:00:00 12,1 3,8 17,5 21 12 36 19 NE 1022,1 23 60 0,0
23.04.2017 10:00:00 11,4 4,5 15,4 28 15 37 20 NE 1022,2 - 60 0,0
23.04.2017 09:00:00 9,6 4,1 14,7 5 3 10 5 NNE 1022,8 - 60 0,0
23.04.2017 08:00:00 6,4 3,3 8,1 1 1 7 4 W 1023,4 25 39 0,0
23.04.2017 07:00:00 3,4 1,2 0,8 3 2 6 3 WNW 1023,5 - 0 0,0
23.04.2017 06:00:00 3,7 0,9 0,9 5 3 6 4 SW 1023,4 - 0 0,0
23.04.2017 05:00:00 3,9 1,8 1,0 4 2 7 4 NW 1023,3 - 0 0,0
23.04.2017 04:00:00 4,8 2,4 1,3 1 1 4 2 N 1023,1 - 0 0,0
23.04.2017 03:00:00 6,1 3,3 2,8 3 2 6 3 W 1022,9 - 0 0,0
23.04.2017 02:00:00 7,9 3,6 4,2 1 1 19 10 N 1023,2 - 0 0,0
23.04.2017 01:00:00 9,4 4,0 6,1 8 5 20 11 N 1023,1 - 0 0,0
23.04.2017 00:00:00 10,9 3,3 8,6 13 7 33 18 NNE 1022,6 - 0 0,0
22.04.2017 23:00:00 11,8 3,1 10,0 20 11 34 19 NNE 1022,3 60 0 0,0
22.04.2017 22:00:00 12,9 2,9 10,9 23 12 35 19 NE 1021,4 - 0 0,0
22.04.2017 21:00:00 14,3 2,9 11,8 17 9 27 14 NE 1020,3 - 0 0,0
22.04.2017 20:00:00 15,9 2,6 15,6 9 5 29 16 NNW 1019,3 60 57 0,0
22.04.2017 19:00:00 18,5 2,5 20,9 10 6 24 13 N 1018,7 - 60 0,0
22.04.2017 18:00:00 20,3 -0,6 24,0 8 5 21 12 NNE 1018,5 - 60 0,0
22.04.2017 17:00:00 20,2 -1,4 25,2 9 5 18 10 E 1019,1 60 60 0,0
22.04.2017 16:00:00 19,7 -2,6 24,6 13 7 20 11 E 1020,0 - 60 0,0
22.04.2017 15:00:00 18,9 -2,3 24,6 13 7 19 10 E 1021,2 - 60 0,0
22.04.2017 14:00:00 17,2 -2,8 24,6 8 4 18 10 E 1022,3 40 60 0,0
22.04.2017 13:00:00 15,9 -3,2 23,9 4 2 17 9 ESE 1023,7 - 60 0,0
22.04.2017 12:00:00 14,0 -2,6 21,5 6 4 14 8 ENE 1025,1 - 60 0,0
22.04.2017 11:00:00 12,3 -1,8 19,5 6 3 16 9 E 1026,1 40 60 0,0
22.04.2017 10:00:00 10,0 -0,3 17,8 2 1 6 4 NW 1026,8 - 60 0,0
22.04.2017 09:00:00 6,8 -1,0 12,9 1 1 4 2 NE 1027,8 - 60 0,0
22.04.2017 08:00:00 3,1 -1,6 5,5 3 2 4 2 W 1028,7 45 38 0,0
22.04.2017 07:00:00 0,0 -3,5 -2,4 1 1 7 4 WSW 1029,1 - 0 0,0
22.04.2017 06:00:00 0,0 -2,8 -3,2 1 0 4 2 WSW 1028,8 - 0 0,0
22.04.2017 05:00:00 0,3 -3,5 -2,4 3 1 4 2 W 1028,9 - 0 0,0
22.04.2017 04:00:00 1,6 -2,8 -1,9 3 1 4 2 WNW 1028,7 - 0 0,0
22.04.2017 03:00:00 2,0 -2,7 -1,7 4 2 5 3 WNW 1029,0 - 0 0,0
22.04.2017 02:00:00 2,8 -2,6 -1,2 0 0 6 4 WNW 1029,3 - 0 0,0
22.04.2017 01:00:00 3,6 -2,1 -0,2 1 1 7 4 WSW 1029,5 - 0 0,0
22.04.2017 00:00:00 5,0 -3,1 0,4 1 1 5 3 NW 1029,4 - 0 0,0
21.04.2017 23:00:00 5,6 -3,8 2,1 4 2 9 5 WNW 1029,3 - 0 0,0
21.04.2017 22:00:00 6,7 -3,9 3,4 2 1 4 2 SW 1029,1 - 0 0,0
21.04.2017 21:00:00 8,9 -7,8 4,8 3 1 8 4 W 1028,4 - 0 0,0
21.04.2017 20:00:00 13,2 -10,1 11,7 4 2 11 6 N 1027,5 40 56 0,0
21.04.2017 19:00:00 14,6 -13,8 17,5 7 4 18 10 NNE 1027,5 - 60 0,0
21.04.2017 18:00:00 14,3 -13,2 19,0 10 6 22 12 NE 1027,8 - 60 0,0
21.04.2017 17:00:00 14,9 -9,2 20,1 16 8 26 14 NNE 1028,0 35 60 0,0
21.04.2017 16:00:00 14,6 -10,5 20,1 14 8 27 14 NNE 1028,7 - 60 0,0
21.04.2017 15:00:00 13,4 -8,5 19,6 19 11 29 16 NE 1029,7 - 60 0,0
21.04.2017 14:00:00 11,3 -7,5 18,8 16 8 26 14 NE 1030,6 30 60 0,0
21.04.2017 13:00:00 10,5 -8,0 17,6 16 9 30 16 NE 1031,4 - 60 0,0
21.04.2017 12:00:00 8,9 -4,7 15,5 16 9 29 16 NNE 1032,1 - 60 0,0
21.04.2017 11:00:00 7,8 -3,7 13,4 18 10 41 22 NE 1032,6 35 60 0,0
21.04.2017 10:00:00 6,1 -4,9 11,4 20 11 35 19 NE 1032,9 - 60 0,0
21.04.2017 09:00:00 4,9 -3,5 8,6 22 12 36 19 NNE 1032,9 - 60 0,0
21.04.2017 08:00:00 3,8 -3,5 5,8 4 2 9 5 NW 1032,8 40 36 0,0
21.04.2017 07:00:00 0,8 -4,0 -1,3 4 2 19 10 W 1033,0 - 0 0,0
21.04.2017 06:00:00 2,8 -3,9 0,3 11 6 26 14 ENE 1032,0 - 0 0,0
21.04.2017 05:00:00 4,1 -4,6 1,9 18 10 35 19 NE 1031,6 - 0 0,0

tt = temperature
td = dewpoint
tt 5cm = temperature 5cm
ff = wind speed
fx = gusts
dd = wind direction
ppp = reduced air pressure
vv = visibility
sd = sunshine duration
rr = precipitation

Next stations